COSMOS 886 DEB, 9958

Orbit data source: Space-Track

COSMOS 886 DEB, 9958 is space debris in LEO originally from a launch on Mon, 27 Dec 1976 UTC launched from the Tyuratam Missile And Space Complex (TTMTR). Debris objects in space refer to the collection of defunct objects orbiting the Earth. Examples of debris include non-operational satellites, rocket bodies, and fragments generated from explosions, collisions, or faulty payload assembly.

Loading next visibility...
Identifier
9958, 1976-126AY
Orbit
LEO
Country
Flag of CISCIS
Related business
Manufacturer
Unknown
Mission
Spacecraft
Bus & Motor
Unknown
Mass
Unknown
Launch date (UTC)
1976-12-27 (49 years ago)
Launch vehicle
Unknown
Launch site
Tyuratam Missile And Space Complex (TTMTR)
Object type
Payload
Rocket body
Debris
Shape & HBR
Unknown shape, 0.1 m
Radar Cross Section
Medium (>0.1 m² and <1 m²)

Expand to show TLE details & history
Last TLE update: 1 day ago

TLE from 1 day ago
0 COSMOS 886 DEB
1 09958U 76126AY  26174.34008376  .00000327  00000-0  44310-3 0  9991
2 09958  65.8707 153.5052 0896782 226.4728 125.8333 12.62034904264208
Epoch: 2026-06-23T08:09Z
TLE epoch observation values (Epoch: 2026-06-23T08:09:43.236Z)
Latitude
-0.00004°
Longitude
119.56198°
Altitude
1,863.619 km
Speed
6.754 km/s
True Right ascension
10h 14m 01s
True Declination
0° 00' 00"
Sunlit
Object was in daylight at epoch
Visualization orbit readout
Latitude
Unknown
Longitude
Unknown
Altitude
Unknown
Speed
Unknown
Apparent Right ascension
Unknown
Apparent Declination
Unknown
Sunlit
N/A
Visualization observer readout
Local Sidereal Time
03:13:53
Azimuth
Unknown
Elevation
Unknown
Doppler factor
Unknown
Orbital elements
Apogee altitude
2,111.843 km
Perigee altitude
714.428 km
Semi-major axis
7,791.272 km
Eccentricity
0.08968
Inclination
65.8707°
RAAN
153.5052°
Arg. of periapsis
226.4728°
True anomaly
133.6265°
Mean anomaly
125.8333°
Eccentric anomaly
129.78192°
Mean motion
3.15595 °/min
Orbital period
114.07 mins
BSTAR
0.0004431
Loading maneuver chart data...
Computing Atmospheric mass density...
Loading historical data...
Loading historical data...
Loading historical data...
Loading historical data...
Loading historical data...
Loading historical data...
Loading historical data...

Documentation

Showing up to 5 results
|